CZ-6A DEB, 60771

Orbit data source: Space-Track

CZ-6A DEB, 60771 is space debris in LEO originally from a launch on Tue, 06 Aug 2024 UTC launched from the Taiyaun Space Center, China (TSC). Debris objects in space refer to the collection of defunct objects orbiting the Earth. Examples of debris include non-operational satellites, rocket bodies, and fragments generated from explosions, collisions, or faulty payload assembly.

Loading next visibility...
Identifier
60771, 2024-140EW
Orbit
LEO
Country
Flag of CNCN / PRC
Related business
Manufacturer
SAST
Mission
Spacecraft
Bus & Motor
Unknown
Mass
Unknown
Launch date (UTC)
2024-08-06 (2 years ago)
Launch vehicle
Unknown
Launch site
Taiyaun Space Center, China (TSC)
Object type
Payload
Rocket body
Debris
Shape & HBR
Unknown shape, 0.1 m
Radar Cross Section
Small (<0.1 m²)

Expand to show TLE details & history
Last TLE update: 15 hours ago

TLE from 15 hours ago
0 CZ-6A DEB
1 60771U 24140EW  26171.22396950  .00002908  00000-0  78684-3 0  9990
2 60771  88.9716 269.0548 0046694 324.8321  34.9804 14.46900843 96628
Epoch: 2026-06-20T05:22Z
TLE epoch observation values (Epoch: 2026-06-20T05:22:30.964Z)
Latitude
-0.00005°
Longitude
-80.01588°
Altitude
711.709 km
Speed
7.514 km/s
True Right ascension
17h 56m 13s
True Declination
0° 00' 00"
Sunlit
Object was in full shadow at epoch
Visualization orbit readout
Latitude
Unknown
Longitude
Unknown
Altitude
Unknown
Speed
Unknown
Apparent Right ascension
Unknown
Apparent Declination
Unknown
Sunlit
N/A
Visualization observer readout
Local Sidereal Time
07:21:45
Azimuth
Unknown
Elevation
Unknown
Doppler factor
Unknown
Orbital elements
Apogee altitude
765.905 km
Perigee altitude
699.498 km
Semi-major axis
7,110.839 km
Eccentricity
0.00467
Inclination
88.9716°
RAAN
269.0548°
Arg. of periapsis
324.8321°
True anomaly
35.28863°
Mean anomaly
34.9804°
Eccentric anomaly
35.13437°
Mean motion
3.61961 °/min
Orbital period
99.46 mins
BSTAR
0.00078684
Loading maneuver chart data...
Computing Atmospheric mass density...
Loading historical data...
Loading historical data...
Loading historical data...
Loading historical data...
Loading historical data...
Loading historical data...
Loading historical data...

Documentation

Showing up to 5 results
|